Terug naar catalogus

IRIDIUM 16

ActiefCommunicatiePO
NORAD 24841·PAYLOAD·🇺🇸 United States

Gelanceerd Jun 18, 1997 vanaf Baikonur Cosmodrome

Loading…

Volgende Passages (komende 24 uur)

TLE

VersSource: Space-Track

Epoch: Sep 14, 2026, 07:02 UTC

1 24841U 97030F   26257.29320047  .00000267  00000-0  80003-4 0  9997
2 24841  86.4073  14.3894 0003378  53.9207 306.2304 14.39098481532303

Volg IRIDIUM 16 in realtime met AllMySat

Download on the App Store